sat.trackr.live / text

‹ back to catalog

COSMOS 2510 (EKS 1)

NORAD 41032 · 2015-066A

PAYLOAD ACTIVE UNKNOWN

§ Identity

Operator
Country
CIS
Launch date
2015-11-17
Launch site
PLMSC
Launch vehicle
Mass (kg)
RCS (m²)
33.21

External: N2YO · Heavens-Above · Gunter

§ Orbital elements

Epoch: 2026-09-16T13:59:29.958432Z

Period
717.64 min
Inclination
63.4427°
Eccentricity
0.7191932
Mean motion
2.00657368 rev/d
Perigee alt
1,077.9 km
Apogee alt
39,270.0 km
Semi-major
26,552.1 km
B*
0.0000e+0
RAAN
333.5696°
Arg perigee
274.8926°
Mean anomaly
13.9360°
Rev number
7,930

§ Raw data

COSMOS 2510 (EKS 1)1 41032U 15066A   26259.58298563 -.00001249  00000+0  00000+0 0  99932 41032  63.4427 333.5696 7191932 274.8926  13.9360  2.00657368 79301

JSON: /api/v1/satellites/41032 · /tle

For live sub-satellite position, see the globe view (requires WebGL).

§ Visibility from observer

Set your observer location to see the next 7 days of passes ≥ 10°. The values pass through the URL so the page stays shareable.

No JS? Fill the form by hand. The geolocation button needs JavaScript.